Home   Weather   Auckland   Past weeks
Flag for New Zealand

Past Weather in Auckland, New Zealand — January 2018

Now
59 °F

Passing clouds.


Feels Like: 59 °F
Forecast: 74 / 58 °F
Wind: No wind

Location: Auckland Airport

Current Time: Jan 18, 2020 at 5:33:09 am

Latest Report: Jan 18, 2020 at 4:30 am


Visibility: N/A

Pressure: 30.01 "Hg

Humidity: 94%

Dew Point: 57 °F

Location of AucklandLocation

January 2018 Weather in Auckland — Graph

°F

High & Low Weather Summary for January 2018

 TemperatureHumidityPressure
High84 °F (Jan 12, 3:00 pm)100% (Jan 2, 12:30 am)30.15 "Hg (Jan 2, 12:30 am)
Low63 °F (Jan 3, 5:00 am)40% (Jan 12, 3:00 pm)29.09 "Hg (Jan 5, 9:30 am)
Average72 °F80%29.96 "Hg
* Reported Jan 1 12:00 am — Jan 31 11:30 pm, Auckland. Weather by CustomWeather, © 2020

Note: Actual official high and low records may vary slightly from our data, if they occured in-between our weather recording intervals... More about our weather records

Auckland Weather History for January 1, 2018

Scroll right to see more
 ConditionsComfort  
Time TempWeatherWind HumidityBarometerVisibility
12:00 am
Mon, Jan 1
66 °FPassing clouds.5 mph83%29.86 "HgN/A
12:30 am66 °FPassing clouds.5 mph83%29.86 "HgN/A
1:00 am66 °FPassing clouds.6 mph83%29.86 "HgN/A
1:30 am66 °FPassing clouds.7 mph78%29.86 "HgN/A
2:00 am66 °FPassing clouds.6 mph78%29.86 "HgN/A
2:30 am66 °FMild.5 mph78%29.83 "HgN/A
3:00 am66 °FMild.2 mph78%29.83 "HgN/A
3:30 am66 °FPassing clouds.2 mph78%29.83 "HgN/A
4:30 am64 °FPassing clouds.5 mph78%29.83 "HgN/A
5:00 am64 °FMostly cloudy.6 mph78%29.83 "HgN/A
5:30 am64 °FLight rain. Overcast.6 mph83%29.83 "HgN/A
6:00 am66 °FOvercast.6 mph78%29.83 "HgN/A
6:30 am66 °FMostly cloudy.6 mph78%29.83 "HgN/A
7:00 am66 °FOvercast.7 mph78%29.83 "HgN/A
7:30 am68 °FScattered showers. Partly sunny.8 mph78%29.83 "HgN/A
8:00 am70 °FScattered showers. Overcast.8 mph73%29.83 "HgN/A
8:30 am70 °FScattered showers. Partly sunny.9 mph69%29.83 "HgN/A
9:00 am70 °FLight rain. Mostly cloudy.6 mph73%29.86 "HgN/A
9:30 am72 °FLight rain. More clouds than sun.7 mph65%29.86 "HgN/A
10:00 am72 °FScattered showers. Cloudy.5 mph69%29.86 "HgN/A
10:30 am73 °FPartly sunny.8 mph65%29.86 "HgN/A
11:00 am73 °FOvercast.9 mph65%29.86 "HgN/A
11:30 am75 °FBroken clouds.9 mph61%29.86 "HgN/A
12:00 pm75 °FPartly sunny.10 mph61%29.86 "HgN/A
12:30 pm75 °FMostly cloudy.10 mph65%29.86 "HgN/A
1:00 pm75 °FScattered showers. Overcast.8 mph65%29.86 "HgN/A
1:30 pm72 °FLight rain. Mostly cloudy.14 mph78%29.86 "HgN/A
2:00 pm75 °FPartly sunny.14 mph69%29.86 "HgN/A
2:30 pm77 °FBroken clouds.9 mph65%29.86 "HgN/A
3:00 pm70 °FLight rain. Mostly cloudy.10 mph94%29.86 "HgN/A
3:30 pm72 °FLight rain. Partly sunny.10 mph88%29.86 "HgN/A
4:00 pm70 °FLight rain. Partly sunny.13 mph88%29.86 "HgN/A
4:30 pm70 °FMostly cloudy.14 mph88%29.86 "HgN/A
5:00 pm70 °FLight rain. Broken clouds.13 mph88%29.86 "HgN/A
5:30 pm68 °FLight rain. Broken clouds.9 mph94%29.86 "HgN/A
6:00 pm68 °FLight rain. Partly sunny.9 mph94%29.86 "HgN/A
6:30 pm68 °FLight rain. Partly sunny.8 mph94%29.86 "HgN/A
7:00 pm68 °FBroken clouds.9 mph94%29.86 "HgN/A
7:30 pm68 °FCloudy.10 mph94%29.86 "HgN/A
8:00 pm68 °FMore clouds than sun.10 mph94%29.86 "HgN/A
8:30 pm68 °FPartly sunny.7 mph88%29.86 "HgN/A
9:00 pm68 °FPassing clouds.6 mph88%29.86 "HgN/A
9:30 pm66 °FPassing clouds.5 mph94%29.89 "HgN/A
10:00 pm68 °FMostly cloudy.6 mph88%29.89 "HgN/A
10:30 pm68 °FOvercast.3 mph94%29.89 "HgN/A
11:00 pm68 °FPassing clouds.7 mph94%29.89 "HgN/A
11:30 pm68 °FPassing clouds.7 mph94%29.92 "HgN/A
Weather by CustomWeather, © 2020

See weather overview

Advertising